EmpireAvenue Top Newcomer Buy Recommendations-21-Sep-2012

Currently I am Commission free for the Next 18 hours so buy my shares now (this is the best time to buy my shares 

With compliments from (e)REZAAHMED

If you Still waiting to join this social rocket fuel click here
You want more mature players? Then go the  Mature Player Buy Recommendations
Score 7 Day Avg.
Dividend
Yield
2 Day
ROI
Link/Ticker EAv
weekly
activities
Price 2 Day
Change
Avg.
Dividends
Joined
days ago
Updated
min ago
Buy?
1. 2.358 0.91 110.60 KINETIC8 0 61.24 31.63 0.56 3 28
2. 2.733 0.77 309.59 DALTONROAD 0 40.34 30.34 0.31 2 155

 

EmpireAvenue Newcomer since last dividend payout

Price increase/sqrt(minutes on EAv) Price Link/Ticker Joined Updated min ago Buy?
0.970 36.595 ELIZABETHHAN 2012-09-20 21:49:47 5
0.567 29.921 CHLOEAGATTI 2012-09-20 13:45:55 5
0.584 27.781 POWDOUG 2012-09-20 18:55:14 5
0.750 27.175 BELLYDANCER 2012-09-21 01:36:44 5
0.434 26.041 VODKASEXVENU 2012-09-20 11:37:25 5
0.502 25.654 DANMABRY 2012-09-20 18:08:02 5
0.445 25.309 MAXCIDER 2012-09-20 14:37:01 5
0.419 25.067 NATGARRETT 2012-09-20 12:48:30 5
0.420 24.857 WENDYT01 2012-09-20 13:31:49 5
0.403 24.635 WITZKEBERRY 2012-09-20 12:24:25 5
0.457 24.574 MOMOSGARAGE 2012-09-20 17:24:56 5
0.378 23.847 POCKETSTITCH 2012-09-20 12:02:12 5
0.409 23.551 RLITTLEJOHN 2012-09-20 16:02:39 5
0.362 22.879 96ROBOTS 2012-09-20 13:13:25 5
0.501 22.672 MASSIVEHOTEL 2012-09-20 23:40:34 5
0.565 22.485 STUDENTSFINA 2012-09-21 02:12:29 5
0.447 22.434 SOLDSIGN 2012-09-20 21:27:18 5
0.345 22.276 SLAVIC 2012-09-20 13:18:30 5
0.339 22.073 IPIERRE 2012-09-20 13:11:51 5
0.410 21.847 DJSUPERMAN20 2012-09-20 20:26:02 5
0.397 21.808 VINKEY 2012-09-20 19:35:48 5
0.395 21.766 WEALTHSQUAD 2012-09-20 19:34:00 5
0.306 20.987 EDUARDOR89 2012-09-20 12:49:59 5
0.335 20.887 FOWLERCNX 2012-09-20 16:47:42 5
0.481 20.291 TECHNEXTNOW 2012-09-21 02:42:29 5
0.276 20.151 FIREBEASTM 2012-09-20 11:52:07 5
0.302 19.374 STACEYLMYERS 2012-09-20 18:16:04 5
0.441 19.235 TONYOWEN 2012-09-21 03:03:24 5
0.404 19.043 JONDELIZ 2012-09-21 01:59:36 5
0.430 19.019 LUCIAEDELMIR 2012-09-21 03:01:49 5
0.400 18.204 MITHRAIDERS 2012-09-21 03:19:38 5
0.465 18.061 ANGIEMC6 2012-09-21 05:20:37 5
0.433 17.995 OBASUN 2012-09-21 04:40:43 5
0.225 17.759 SYLUNLIMITED 2012-09-20 14:36:40 5
0.266 17.465 FULTONFOODS 2012-09-20 21:13:39 5
0.219 17.276 SEBTRANSLATE 2012-09-20 16:02:21 5
0.217 16.654 PETERD256 2012-09-20 18:41:55 5
0.246 16.176 JOKER1997 2012-09-20 23:50:03 5
0.167 15.716 IZAAK 2012-09-20 14:49:34 5
0.172 15.173 JSPMAXOUT 2012-09-20 19:20:14 5
0.158 15.086 IMARAN 2012-09-20 17:06:31 5
0.175 14.986 ZACKPROSER 2012-09-20 20:47:35 5
0.178 14.930 KWAMEWALKERT 2012-09-20 21:38:17 5
0.147 14.916 ADRIEN7105 2012-09-20 15:38:43 5
0.413 14.890 PSOARES 2012-09-21 08:01:11 5
0.136 14.847 RITAFAL 2012-09-20 13:19:31 5
0.204 14.734 SEANGUM 2012-09-21 01:22:55 5
0.226 14.587 CBOXINGINFO 2012-09-21 03:29:47 5
0.148 14.468 HEIDIBETH 2012-09-20 19:07:29 5
0.137 14.350 ORACIONSEVEN 2012-09-20 17:37:24 5
0.444 14.290 NP2012 2012-09-21 08:47:53 5
0.326 13.714 RAINBOWWARRI 2012-09-21 08:10:58 5
0.186 13.169 WAGGA 2012-09-21 05:30:27 5